Wind_Speed
13 13 12 11 10 9 7 6 5 4 3 2 2 3 5 5 4 5 5 5 5 6 6 7 7 6 7 6 5 4 3 3 4 4 4 3 3 2 1 1 1 2 1 1
15 14 13 13 12 10 9 7 6 5 4 3 2 3 4 5 5 5 4 4 5 5 5 6 6 6 6 6 5 5 4 4 4 4 4 4 3 2 1 1 1 2 2 2
15 15 16 15 14 12 10 9 8 7 6 5 4 4 5 5 5 5 5 5 5 5 5 5 6 6 5 5 5 5 4 4 3 4 4 4 3 3 3 2 1 2 3 3
18 18 18 17 16 14 12 11 10 9 7 6 6 4 6 6 5 5 5 6 6 5 5 5 6 6 5 5 5 5 4 4 3 3 4 4 4 4 4 3 2 2 3 3
20 20 19 18 17 16 15 14 12 11 9 8 8 7 7 7 6 6 6 6 6 6 5 5 6 6 5 5 5 4 4 4 4 3 3 4 4 4 4 4 3 3 4 4
22 21 21 20 20 19 18 17 15 13 11 10 10 8 8 8 7 7 7 7 7 7 6 6 6 6 6 5 5 5 4 5 5 5 4 4 5 5 5 5 5 5 5 5
23 23 22 22 21 21 20 18 15 14 13 12 12 10 9 9 9 8 8 8 8 8 8 7 7 7 7 6 6 6 5 5 6 6 6 6 6 6 6 6 6 6 6 7
24 24 23 22 22 21 21 19 18 16 14 14 15 13 12 11 10 8 8 8 9 9 9 8 8 7 7 7 7 7 7 7 7 8 8 8 8 8 7 7 7 8 8 8
23 23 23 23 23 23 22 22 19 18 17 16 16 15 13 12 10 9 9 8 8 9 9 9 8 8 8 8 9 9 8 9 9 9 10 10 10 10 10 10 10 10 10 10
23 23 24 24 24 25 24 22 22 20 19 18 18 16 13 12 11 11 10 9 9 9 8 9 9 9 9 10 10 10 9 10 10 10 11 11 11 11 11 12 12 12 12 12
24 23 24 25 26 25 25 24 23 22 21 19 18 17 15 14 13 12 12 11 11 10 10 10 10 10 11 11 11 11 11 11 12 12 12 12 11 11 11 12 12 13 13 13
26 24 24 24 25 25 25 25 24 23 22 21 19 19 17 15 14 14 14 13 12 12 11 11 11 11 12 12 13 13 13 13 13 13 13 12 12 12 13 13 13 14 14 14
27 26 25 24 25 26 26 26 24 23 23 22 20 20 19 18 16 15 15 14 14 13 12 12 12 13 13 14 14 14 14 14 14 14 14 14 14 14 14 15 15 15 15 16
28 27 26 24 24 25 26 26 25 25 23 23 22 20 20 19 18 16 16 15 14 14 13 13 13 14 14 14 14 14 15 15 15 15 15 15 16 16 17 17 17 17 18 18
28 29 28 26 26 26 26 26 26 26 26 25 24 23 22 21 20 18 17 17 16 15 15 15 15 15 15 15 15 16 15 15 16 16 16 15 16 17 18 19 19 19 20 20
30 30 29 28 27 28 27 27 27 27 26 26 26 25 24 23 22 20 19 18 18 17 18 17 16 16 16 16 16 17 17 17 17 17 18 18 18 19 19 20 21 21 22 22
31 30 29 29 28 28 29 28 27 27 26 26 27 27 26 26 24 23 21 20 20 19 19 19 18 18 18 18 18 19 20 20 20 20 19 20 21 22 22 21 22 23 23 24
32 31 30 29 30 30 28 28 28 27 27 27 28 28 27 27 26 24 22 21 21 21 21 21 20 21 21 21 21 21 21 22 22 22 21 21 22 22 23 23 24 23 23 24
33 33 32 31 30 31 30 29 28 28 28 28 28 28 27 26 25 25 24 23 22 23 22 22 22 23 23 23 23 23 22 23 23 23 23 22 23 23 24 24 24 25 25 25
33 33 33 33 31 31 30 29 28 28 29 29 29 28 27 27 26 26 25 24 24 23 23 24 25 25 25 25 24 24 24 24 25 25 26 25 25 25 25 25 26 26 26 26
33 33 33 33 32 32 31 30 28 28 28 28 28 28 28 27 27 26 26 25 25 24 25 25 26 26 26 25 25 25 26 26 27 28 28 27 27 27 27 27 27 27 28 28
34 34 33 32 32 32 32 30 30 29 28 27 27 28 28 27 26 26 26 26 26 26 26 26 27 27 26 26 26 27 28 29 29 30 29 29 29 29 28 28 28 29 29 29
34 34 33 33 33 32 32 31 30 29 29 28 28 28 28 27 26 26 26 26 26 26 27 27 28 28 28 28 29 29 30 30 31 31 31 30 30 30 30 30 30 30 30 30
34 33 33 33 33 32 32 32 31 30 29 29 29 28 28 27 27 27 27 26 26 27 27 28 28 29 29 30 30 31 31 32 33 33 33 32 31 32 32 32 31 31 30 29
34 33 33 33 33 32 32 31 30 29 29 29 29 29 28 28 28 28 27 27 27 27 28 28 29 29 30 30 31 32 32 33 33 33 33 33 33 33 33 32 32 31 31 31
33 32 33 33 33 33 32 31 29 28 29 29 29 29 28 27 28 28 28 28 28 28 29 29 30 31 31 32 32 33 33 33 33 33 33 33 33 34 34 34 33 33 32 32
Wind_Direction
215 213 212 210 207 206 207 206 212 232 251 292 350 12 17 22 18 18 24 26 27 30 35 35 36 35 32 30 35 43 57 60 55 46 44 47 58 53 52 79 176 192 222 259
216 216 214 213 215 216 214 216 225 235 247 265 296 332 348 358 358 354 356 359 2 10 16 19 18 22 19 26 35 33 36 42 45 37 36 37 39 36 19 308 250 235 252 262
219 220 218 218 218 217 218 219 225 236 247 258 278 311 316 329 340 344 341 338 336 345 355 2 4 0 5 15 22 25 25 29 27 28 29 27 25 21 13 343 316 269 261 269
217 221 220 219 218 218 224 227 230 238 245 257 262 277 300 306 315 321 328 330 330 329 334 343 348 351 350 355 2 6 8 5 10 12 9 9 7 2 358 356 327 289 286 292
224 224 223 222 223 222 223 230 235 240 247 249 259 263 280 292 303 309 315 317 320 319 316 320 328 337 340 341 345 350 350 347 343 335 340 348 349 344 343 342 332 319 315 308
228 227 225 225 225 224 227 233 239 244 249 253 251 257 269 285 294 303 315 315 311 315 312 312 310 316 324 331 336 335 332 330 324 318 318 324 327 324 322 322 318 314 309 309
231 230 228 226 226 227 228 231 240 247 251 254 252 254 257 271 284 292 303 310 310 307 306 306 304 300 300 310 318 319 317 316 313 310 308 310 313 313 312 311 312 312 305 303
233 233 232 230 229 231 231 229 232 239 249 256 260 257 259 268 275 280 289 301 308 306 305 302 295 294 295 298 308 312 308 306 305 304 303 303 305 304 303 303 303 304 302 300
231 233 235 234 231 231 234 233 233 241 247 247 255 260 258 263 267 271 280 294 303 302 302 298 289 286 288 293 297 301 300 298 298 299 298 297 298 300 298 298 299 300 300 298
228 230 234 234 232 232 233 236 236 236 242 247 253 258 259 258 261 266 277 290 293 295 297 294 283 280 283 286 291 292 291 291 290 292 293 293 291 293 294 294 294 296 297 297
227 228 233 233 231 233 236 238 239 240 239 243 250 255 256 254 257 263 272 278 282 282 289 287 282 281 281 284 289 292 288 289 290 289 289 286 288 289 293 295 292 293 296 295
227 227 231 233 233 234 237 238 240 240 243 241 242 250 252 255 258 261 269 272 275 278 279 279 278 277 280 284 288 288 287 288 288 289 287 284 286 289 292 294 293 293 293 294
226 226 229 233 236 235 236 236 237 238 242 242 243 250 251 254 257 261 266 268 271 271 273 276 276 276 283 286 286 284 284 286 285 286 288 289 286 285 287 289 291 291 292 292
228 228 229 232 237 240 238 238 239 238 241 246 245 246 251 253 256 260 264 266 267 267 270 272 274 275 279 282 284 282 281 279 281 284 287 290 289 285 285 286 287 288 290 291
229 231 231 231 234 237 240 240 241 240 240 245 247 246 249 253 255 258 262 261 262 263 265 268 272 272 274 278 280 279 281 280 281 283 283 286 288 288 287 285 285 285 286 287
230 232 233 234 236 237 239 240 241 242 243 245 247 247 249 253 254 256 259 258 259 260 262 264 268 269 271 276 279 282 280 279 281 284 282 282 285 286 287 285 282 283 284 285
230 232 234 237 238 240 242 241 243 245 245 247 249 249 250 251 252 254 258 258 256 256 259 262 265 268 269 272 276 279 279 279 280 282 284 283 283 284 285 283 284 284 284 286
230 232 235 238 239 239 242 244 245 246 248 248 249 250 252 250 252 253 255 256 254 256 257 259 261 265 267 270 272 275 277 277 278 280 283 286 286 287 288 288 289 286 287 287
231 233 236 239 242 244 244 245 244 245 246 246 247 249 250 252 252 252 253 254 255 255 255 257 259 261 266 271 273 275 276 278 280 280 280 283 285 286 287 289 288 288 287 288
233 234 236 238 241 246 246 245 245 247 248 247 247 248 249 252 252 251 251 253 254 254 253 255 258 262 267 271 272 275 276 276 279 281 280 279 280 282 283 286 287 288 289 288
232 234 236 239 242 245 245 245 245 246 247 246 247 248 250 251 251 251 251 251 251 253 255 256 259 263 266 269 271 273 274 275 278 281 280 278 279 280 281 283 285 286 288 289
233 236 237 239 241 244 244 244 244 247 248 248 248 248 249 249 250 249 249 249 250 253 255 257 260 261 264 267 270 271 273 274 276 280 281 279 278 279 280 281 284 286 288 289
234 235 237 238 240 243 244 245 246 248 248 247 248 248 248 248 248 248 250 250 249 251 254 257 260 262 265 267 269 270 271 274 276 277 278 279 279 279 281 282 283 285 286 288
235 235 237 239 240 242 244 246 247 248 248 248 249 248 246 246 246 247 248 247 249 252 255 258 262 264 266 267 268 270 271 274 275 276 278 278 279 280 281 281 283 284 285 287
235 236 237 238 240 242 243 246 248 251 248 245 246 247 248 245 246 246 246 248 251 253 256 259 261 264 266 267 269 271 274 276 276 277 276 277 278 279 278 279 281 283 285 286
234 235 235 236 238 241 242 244 246 246 245 245 246 247 246 244 245 246 247 249 251 254 257 258 260 263 266 268 270 273 275 275 276 278 278 278 278 278 278 278 279 281 283 285
Height
5905 5908 5910 5912 5914 5916 5917 5918 5918 5918 5918 5917 5917 5916 5915 5914 5913 5912 5911 5910 5909 5907 5906 5905 5904 5903 5902 5901 5900 5899 5898 5897 5897 5896 5895 5894 5893 5893 5893 5892 5892 5892 5892 5891
5903 5906 5908 5910 5911 5913 5915 5916 5917 5917 5917 5917 5917 5917 5916 5914 5914 5912 5912 5911 5910 5909 5907 5906 5905 5904 5903 5902 5901 5900 5899 5898 5897 5897 5896 5895 5894 5893 5893 5893 5893 5892 5892 5891
5900 5904 5905 5907 5909 5911 5913 5915 5916 5916 5916 5916 5917 5917 5916 5915 5914 5913 5912 5911 5910 5909 5908 5907 5906 5905 5904 5902 5901 5901 5900 5899 5898 5897 5897 5896 5895 5894 5893 5893 5893 5892 5892 5891
5897 5899 5901 5904 5906 5909 5911 5912 5914 5914 5915 5916 5917 5918 5916 5915 5914 5913 5911 5910 5910 5909 5908 5907 5906 5905 5904 5903 5902 5901 5900 5899 5899 5898 5897 5896 5895 5894 5894 5893 5892 5892 5891 5891
5893 5895 5898 5901 5904 5906 5909 5909 5911 5912 5913 5915 5915 5916 5917 5914 5913 5912 5911 5910 5909 5908 5908 5907 5906 5905 5904 5903 5902 5901 5901 5900 5899 5898 5897 5896 5895 5894 5894 5893 5892 5892 5891 5890
5890 5892 5894 5897 5900 5902 5904 5907 5908 5910 5911 5913 5914 5914 5915 5913 5912 5912 5911 5909 5908 5908 5907 5906 5906 5905 5904 5903 5902 5902 5901 5900 5899 5898 5897 5896 5895 5894 5893 5893 5892 5891 5890 5890
5885 5887 5890 5893 5896 5898 5901 5905 5907 5909 5910 5911 5911 5911 5912 5911 5910 5910 5909 5908 5907 5906 5906 5905 5905 5904 5904 5903 5902 5901 5900 5899 5898 5897 5897 5896 5895 5894 5893 5892 5891 5890 5889 5888
5881 5884 5886 5888 5892 5895 5897 5901 5905 5907 5909 5910 5907 5908 5909 5908 5908 5908 5907 5907 5906 5905 5904 5904 5903 5903 5903 5902 5901 5900 5899 5898 5898 5897 5896 5895 5894 5893 5892 5891 5890 5889 5888 5887
5877 5880 5882 5884 5887 5890 5893 5895 5900 5903 5903 5905 5905 5905 5905 5905 5905 5905 5905 5904 5904 5903 5903 5902 5901 5901 5901 5900 5900 5899 5898 5897 5897 5896 5895 5894 5892 5891 5891 5890 5888 5887 5886 5885
5871 5875 5876 5879 5882 5884 5888 5891 5894 5896 5898 5900 5902 5901 5903 5902 5902 5902 5902 5902 5902 5901 5900 5900 5899 5899 5899 5898 5898 5897 5896 5895 5895 5894 5893 5891 5891 5890 5889 5888 5886 5885 5884 5883
5866 5870 5872 5874 5876 5880 5883 5885 5887 5890 5893 5896 5898 5901 5899 5898 5899 5899 5899 5899 5899 5898 5898 5897 5897 5897 5896 5896 5895 5894 5894 5893 5892 5891 5890 5889 5888 5887 5886 5885 5884 5883 5881 5880
5860 5864 5867 5869 5871 5874 5877 5879 5882 5885 5886 5888 5892 5896 5893 5894 5895 5895 5896 5896 5896 5895 5895 5895 5894 5894 5893 5892 5892 5892 5891 5890 5889 5888 5887 5886 5885 5884 5883 5882 5881 5880 5878 5877
5854 5858 5861 5864 5868 5869 5870 5872 5875 5879 5881 5882 5886 5890 5888 5889 5890 5891 5892 5892 5892 5892 5892 5892 5891 5891 5890 5889 5889 5888 5887 5886 5886 5885 5884 5883 5882 5881 5880 5879 5877 5876 5875 5874
5848 5852 5857 5861 5863 5863 5865 5867 5870 5873 5876 5877 5879 5882 5883 5884 5885 5886 5887 5887 5888 5888 5888 5888 5888 5887 5886 5886 5885 5884 5884 5883 5882 5881 5880 5879 5878 5877 5876 5875 5873 5872 5871 5870
5841 5845 5848 5852 5855 5857 5859 5861 5863 5866 5869 5871 5873 5874 5877 5878 5879 5880 5881 5882 5883 5884 5884 5884 5884 5883 5883 5882 5881 5880 5880 5879 5878 5877 5876 5875 5874 5873 5871 5870 5869 5868 5867 5865
5835 5838 5842 5845 5847 5850 5852 5855 5857 5859 5861 5863 5866 5867 5870 5872 5873 5875 5876 5877 5877 5878 5879 5879 5879 5879 5878 5878 5877 5876 5875 5875 5874 5873 5872 5871 5869 5868 5866 5865 5864 5863 5862 5860
5827 5832 5835 5838 5841 5843 5845 5848 5850 5852 5854 5857 5858 5861 5863 5865 5866 5868 5869 5870 5871 5872 5873 5873 5874 5874 5873 5873 5872 5872 5871 5870 5869 5868 5867 5865 5864 5863 5861 5860 5858 5857 5856 5854
5820 5824 5828 5831 5834 5836 5841 5841 5843 5845 5847 5849 5851 5852 5854 5857 5859 5861 5863 5864 5865 5866 5867 5867 5868 5868 5868 5867 5867 5866 5865 5864 5863 5862 5861 5860 5858 5857 5856 5854 5853 5851 5850 5848
5812 5816 5820 5823 5826 5828 5832 5833 5835 5838 5840 5841 5843 5845 5847 5850 5852 5854 5856 5857 5858 5860 5860 5861 5861 5861 5861 5861 5860 5860 5859 5858 5857 5856 5855 5854 5853 5851 5850 5848 5846 5844 5843 5841
5804 5808 5813 5815 5818 5821 5824 5825 5827 5831 5832 5834 5836 5838 5840 5842 5845 5847 5848 5850 5851 5852 5853 5854 5854 5854 5854 5854 5853 5853 5852 5852 5851 5850 5848 5847 5846 5845 5843 5842 5840 5838 5836 5834
5796 5799 5803 5806 5809 5812 5815 5817 5820 5824 5825 5826 5828 5830 5832 5834 5837 5839 5841 5842 5844 5845 5846 5847 5847 5847 5847 5847 5847 5846 5846 5845 5844 5843 5841 5840 5839 5838 5836 5835 5833 5831 5829 5827
5787 5791 5794 5797 5801 5806 5806 5809 5812 5814 5816 5818 5820 5821 5824 5826 5829 5831 5833 5835 5836 5838 5839 5840 5840 5840 5840 5840 5840 5839 5838 5838 5837 5836 5834 5832 5831 5830 5828 5827 5825 5823 5821 5819
5778 5782 5785 5789 5794 5795 5797 5800 5803 5805 5807 5810 5812 5814 5816 5818 5821 5823 5825 5827 5829 5830 5831 5832 5832 5833 5833 5832 5832 5831 5831 5829 5829 5828 5827 5825 5824 5822 5820 5818 5817 5815 5813 5811
5769 5773 5776 5780 5783 5786 5789 5791 5794 5796 5798 5801 5803 5805 5808 5810 5813 5815 5817 5819 5821 5822 5823 5824 5825 5825 5825 5825 5824 5823 5822 5822 5821 5819 5818 5817 5815 5813 5812 5810 5808 5806 5804 5803
5761 5765 5768 5771 5775 5778 5780 5783 5786 5788 5790 5792 5794 5797 5799 5802 5804 5807 5809 5811 5813 5814 5815 5816 5816 5817 5817 5816 5816 5815 5814 5813 5811 5810 5809 5807 5806 5804 5803 5801 5799 5797 5796 5794
5752 5756 5759 5762 5766 5769 5772 5774 5777 5779 5782 5784 5786 5788 5790 5793 5796 5798 5800 5803 5804 5806 5806 5807 5808 5808 5808 5807 5806 5805 5804 5803 5802 5800 5799 5797 5796 5794 5793 5792 5790 5788 5787 5785